Location: Worth Mountain WMA
(34.9569°N, 81.4819°W)
Time: 18:18:14
(UTC-05:00)

Amateur Radio Satellites - All Passes

Search period start: 06 February 2016 17:48
Search period end: 07 February 2016 17:48
Location: Worth Mountain WMA, 34.9569°N, 81.4819°W

Satellite Date Start Highest point End Downlink Frequencies (MHz)
Time Altitude Azimuth
Cubesat XI-IV 06 Feb 17:48:17 17:53:31 66° 74° (ENE) 17:58:49 437.490
GOMX 1 06 Feb 17:52:41 17:56:30 20° 68° (ENE) 18:00:14 467.674
CUBESAT XI-V 06 Feb 17:54:42 17:59:22 59° 101° (E) 18:03:58 437.345
HO-68 06 Feb 17:59:52 18:00:38 10° 54° (NE) 18:01:25 435.675
BRITE-PL 06 Feb 18:03:28 18:08:54 49° 73° (ENE) 18:14:20 437.365/2234.400
Cosmos 2491 06 Feb 18:05:02 18:09:30 15° 295° (WNW) 18:14:00 435.465 / 435.565
Cosmos 2504 06 Feb 18:08:16 18:15:53 36° 274° (W) 18:23:05 435.465 / 435.565
RS-15 06 Feb 18:18:08 18:24:28 15° 17° (NNE) 18:30:53 29.354- 29.394
LilacSat-2 06 Feb 18:39:50 18:43:16 31° 263° (W) 18:46:42 437.200
STRAND 1 06 Feb 18:42:02 18:45:57 22° 95° (E) 18:49:50 437.568
O/OREOS (USA 219) 06 Feb 18:46:48 18:51:17 52° 68° (ENE) 18:55:46 437.305
BEESAT 3 06 Feb 19:00:00 19:03:20 25° 306° (NW) 19:06:42 437.485
CUTE 1.7 + AOD 2 06 Feb 19:00:09 19:02:30 15° 68° (ENE) 19:04:52 437.475
AIST 2 06 Feb 19:06:03 19:09:01 19° 110° (ESE) 19:11:59 435.215
SEEDS 06 Feb 19:13:02 19:15:29 15° 68° (ENE) 19:17:57 437.485
AO-85 06 Feb 19:14:53 19:17:14 13° 43° (NE) 19:19:30 145.980
CINEMA 3 06 Feb 19:15:11 19:18:43 21° 70° (ENE) 19:22:08 145.822/145.860
BEESAT 2 06 Feb 19:17:25 19:20:48 26° 306° (NW) 19:24:15 435.950
CUTE-I 06 Feb 19:17:55 19:21:19 17° 267° (W) 19:24:44 437.470
DOVE 4 06 Feb 19:28:47 19:34:01 89° 253° (WSW) 19:39:04 437.250
GOMX 1 06 Feb 19:28:54 19:34:11 48° 261° (W) 19:39:22 467.674
Cubesat XI-IV 06 Feb 19:31:47 19:33:59 13° 268° (W) 19:36:13 437.490
GONETS M04 06 Feb 19:32:40 19:39:27 24° 70° (ENE) 19:46:12
PRISM 06 Feb 19:33:43 19:36:48 20° 95° (E) 19:39:51 437.425
CUBESAT XI-V 06 Feb 19:34:14 19:36:11 12° 295° (WNW) 19:38:08 437.345
AAUSAT CUBESAT 2 06 Feb 19:37:34 19:40:19 18° 69° (ENE) 19:43:04 437.432
HO-68 06 Feb 19:39:55 19:46:58 66° 71° (ENE) 19:54:05 435.675
CANX-2 06 Feb 19:42:33 19:46:38 55° 76° (ENE) 19:50:45 2200.000
BRITE-PL 06 Feb 19:43:24 19:47:30 20° 267° (W) 19:51:38 437.365/2234.400
CUBEBUG 2 06 Feb 19:48:09 19:50:45 16° 68° (ENE) 19:53:19 437.445
UWE-3 06 Feb 19:57:15 19:59:25 14° 68° (ENE) 20:01:33 435.000/436.395/437.385
PCSat 06 Feb 20:09:43 20:13:32 19° 51° (NE) 20:17:19 145.827
Oscar 11 06 Feb 20:12:16 20:15:15 19° 69° (ENE) 20:18:15 145.826/435.025
STRAND 1 06 Feb 20:20:26 20:25:11 38° 289° (WNW) 20:29:54 437.568
O/OREOS (USA 219) 06 Feb 20:28:27 20:30:10 12° 262° (W) 20:31:52 437.305
RS-15 06 Feb 20:30:19 20:41:40 42° 48° (NE) 20:53:05 29.354- 29.394
CUTE 1.7 + AOD 2 06 Feb 20:34:06 20:38:00 38° 262° (W) 20:41:56 437.475
COMPASS 1 06 Feb 20:39:10 20:43:15 63° 259° (W) 20:47:23 437.405
AIST 2 06 Feb 20:43:32 20:47:17 32° 305° (NW) 20:51:02 435.215
SEEDS 06 Feb 20:47:03 20:50:52 35° 262° (W) 20:54:44 437.485
CINEMA 3 06 Feb 20:51:22 20:55:38 32° 262° (W) 20:59:45 145.822/145.860
AO-85 06 Feb 20:53:27 20:58:32 86° 241° (WSW) 21:03:09 145.980
ZACube-1 06 Feb 20:57:31 21:01:37 47° 75° (ENE) 21:05:39 437.345
FUNcube-1 06 Feb 21:08:24 21:12:37 62° 75° (ENE) 21:16:45 145.935
PRISM 06 Feb 21:08:33 21:12:05 27° 290° (WNW) 21:15:37 437.425
AAUSAT CUBESAT 2 06 Feb 21:11:56 21:15:33 30° 263° (W) 21:19:14 437.432
DELFI C3 06 Feb 21:18:56 21:22:48 59° 76° (ENE) 21:26:44 145.870
CUBEBUG 2 06 Feb 21:22:56 21:27:04 38° 261° (W) 21:31:07 437.445
Cosmos 2499 06 Feb 21:26:30 21:34:48 56° 79° (E) 21:42:25 435.465 / 435.565
GONETS M04 06 Feb 21:28:10 21:36:50 65° 268° (W) 21:45:30
HO-68 06 Feb 21:30:11 21:35:07 20° 266° (W) 21:40:05 435.675
UWE-3 06 Feb 21:31:23 21:35:31 43° 261° (W) 21:39:34 435.000/436.395/437.385
ANTELSAT 06 Feb 21:41:56 21:43:10 11° 93° (E) 21:44:23 437.575/2403.000
Oscar 11 06 Feb 21:47:21 21:51:09 31° 263° (W) 21:54:58 145.826/435.025
HUMSAT D 06 Feb 21:47:29 21:51:27 50° 75° (ENE) 21:55:25 437.325/437.525
TIGRISAT 06 Feb 21:49:19 21:51:22 13° 93° (E) 21:53:26 435.000
PCSat 06 Feb 21:51:58 21:57:17 57° 248° (WSW) 22:02:33 145.827
DX 1 06 Feb 21:54:53 21:56:49 13° 65° (ENE) 21:58:45 434.975-435.025
50 SAT 06 Feb 22:15:18 22:18:04 20° 70° (ENE) 22:20:50 437.505
UNISAT 6 06 Feb 22:30:49 22:34:58 44° 99° (E) 22:39:10 437.425
VELOX 1 06 Feb 22:34:20 22:38:20 33° 71° (ENE) 22:42:19 145.980
ZACube-1 06 Feb 22:36:49 22:38:07 11° 268° (W) 22:39:25 437.345
QB50P1 06 Feb 22:38:12 22:38:33 10° 92° (E) 22:38:53 145.935-145.965
RS-15 06 Feb 22:42:43 22:54:34 59° 249° (WSW) 23:06:28 29.354- 29.394
AISAT 06 Feb 22:49:55 22:54:17 53° 74° (ENE) 22:58:38 437.250
AIST 1 06 Feb 22:53:30 22:57:47 59° 266° (W) 23:02:00
ESTCUBE 1 06 Feb 22:57:28 23:01:56 69° 76° (ENE) 23:06:28 437.505/2401.250
ANTELSAT 06 Feb 23:15:54 23:20:07 51° 285° (WNW) 23:24:23 437.575/2403.000
CUBEBUG 1 06 Feb 23:19:53 23:24:19 89° 262° (W) 23:28:47 437.445
Cosmos 2499 06 Feb 23:20:47 23:27:11 25° 278° (W) 23:33:16 435.465 / 435.565
UKube-1 06 Feb 23:22:29 23:26:48 71° 259° (WSW) 23:31:09 .
TIGRISAT 06 Feb 23:24:08 23:28:13 43° 286° (WNW) 23:32:22 435.000
POLYITAN 1 06 Feb 23:26:01 23:30:02 43° 99° (E) 23:34:01 437.675
QB50P2 06 Feb 23:26:50 23:30:53 45° 100° (E) 23:34:55 145.880/145.840
DX 1 06 Feb 23:28:17 23:32:32 50° 260° (W) 23:36:49 434.975-435.025
SPROUT 06 Feb 23:38:01 23:42:08 47° 74° (ENE) 23:46:17 437.525
BUGSAT 1 06 Feb 23:49:02 23:52:46 35° 98° (E) 23:56:26 437.445
ISS 06 Feb 23:49:12 23:52:12 34° 37° (NE) 23:55:11 145.825
50 SAT 06 Feb 23:49:12 23:51:59 20° 264° (W) 23:54:46 437.505
POPSAT HIP 1 06 Feb 23:57:25 00:01:37 78° 285° (WNW) 00:05:48 437.405
TISAT 1 07 Feb 00:00:58 00:04:42 31° 71° (ENE) 00:08:25 437.305
NANOSAT C BR1 07 Feb 00:04:24 00:08:33 64° 285° (WNW) 00:12:42 145.865
DUCHIFAT 1 07 Feb 00:07:26 00:11:34 62° 285° (WNW) 00:15:40 145.980
UNISAT 6 07 Feb 00:09:06 00:11:18 14° 293° (WNW) 00:13:31 437.425
QB50P1 07 Feb 00:10:31 00:14:36 52° 286° (WNW) 00:18:40 145.935-145.965
VELOX 1 07 Feb 00:11:40 00:14:50 19° 265° (W) 00:18:00 145.980
AISAT 07 Feb 00:29:28 00:31:01 12° 268° (W) 00:32:35 437.250
ITUPSAT 1 07 Feb 00:34:07 00:36:20 13° 64° (ENE) 00:38:32 437.325
BEESAT 07 Feb 00:43:56 00:47:00 17° 66° (ENE) 00:50:05 436.000
PHONESAT 2.4 07 Feb 00:46:05 00:46:40 10° 141° (SE) 00:47:15 2401.200-2431.200
JAS-2 07 Feb 00:49:52 00:50:58 11° 88° (E) 00:52:04 435.910
POLYITAN 1 07 Feb 01:03:26 01:05:27 13° 293° (WNW) 01:07:27 437.675
QB50P2 07 Feb 01:04:27 01:06:16 13° 294° (WNW) 01:08:06 145.880/145.840
CUSAT 1 07 Feb 01:08:38 01:14:19 23° 84° (E) 01:20:16 437.405
DANDE 07 Feb 01:15:48 01:19:06 13° 77° (ENE) 01:22:35 436.750
SPROUT 07 Feb 01:16:43 01:18:21 12° 268° (W) 01:19:58 437.525
BUGSAT 1 07 Feb 01:25:35 01:27:49 14° 293° (WNW) 01:30:02 437.445
ISS 07 Feb 01:26:11 01:28:27 18° 231° (SW) 01:30:43 145.825
SWISSCUBE 07 Feb 01:33:54 01:38:36 67° 75° (ENE) 01:43:21 437.505
TISAT 1 07 Feb 01:37:28 01:40:22 18° 265° (W) 01:43:17 437.305
Oscar 19 07 Feb 02:01:34 02:06:43 83° 286° (WNW) 02:11:49 437.125/150
Gurwin Techsat 1B 07 Feb 02:05:20 02:10:14 37° 98° (E) 02:15:07 435.225
ITUPSAT 1 07 Feb 02:08:58 02:13:38 57° 259° (W) 02:18:21 437.325
Cosmos 2491 07 Feb 02:17:31 02:25:38 40° 76° (ENE) 02:33:41 435.465 / 435.565
BEESAT 07 Feb 02:19:57 02:24:25 42° 261° (W) 02:28:57 436.000
PHONESAT 2.4 07 Feb 02:20:16 02:23:31 66° 153° (SSE) 02:26:46 2401.200-2431.200
JAS-2 07 Feb 02:31:06 02:36:49 71° 286° (WNW) 02:42:02 435.910
MOZHAYETS 4 07 Feb 02:47:45 02:50:38 17° 67° (ENE) 02:53:30
CUSAT 1 07 Feb 02:48:16 02:55:48 68° 280° (W) 03:03:59 437.405
DANDE 07 Feb 02:53:23 03:00:30 81° 96° (E) 03:08:55 436.750
ITAMSAT 1 07 Feb 03:02:50 03:08:04 71° 102° (ESE) 03:13:17 435.822/435.867
YUBILEINY 07 Feb 03:04:34 03:12:25 39° 87° (E) 03:20:20 435.215
STARS 07 Feb 03:09:07 03:13:17 43° 73° (ENE) 03:17:28 437.465
KKS-1 07 Feb 03:16:52 03:21:20 78° 257° (WSW) 03:25:49 437.445
BEESAT 3 07 Feb 03:19:54 03:23:49 62° 60° (ENE) 03:27:41 437.485
AO-7 07 Feb 03:30:25 03:37:55 36° 99° (E) 03:45:20 29.400- 29.500
BEESAT 2 07 Feb 03:38:03 03:42:01 63° 60° (ENE) 03:45:56 435.950
Gurwin Techsat 1B 07 Feb 03:45:46 03:49:56 24° 293° (WNW) 03:54:05 435.225
PHONESAT 2.4 07 Feb 03:57:53 04:00:56 35° 350° (N) 04:04:00 2401.200-2431.200
Cosmos 2491 07 Feb 04:14:28 04:22:17 39° 273° (W) 04:30:08 435.465 / 435.565
MOZHAYETS 4 07 Feb 04:23:11 04:27:26 40° 262° (W) 04:31:44
SO-50 07 Feb 04:27:24 04:29:06 12° 106° (ESE) 04:30:49 436.795
M-CUBED/EXP-1 PRIME 07 Feb 04:28:27 04:31:47 57° 106° (ESE) 04:35:17 437.505
CUSAT 1 07 Feb 04:36:32 04:39:32 12° 298° (WNW) 04:42:36 437.405
HORYU 2 07 Feb 04:38:20 04:42:41 54° 100° (E) 04:47:03 437.375
DANDE 07 Feb 04:39:18 04:44:31 20° 296° (WNW) 04:50:11 436.750
AUBIESAT-1 07 Feb 04:41:11 04:44:36 71° 106° (ESE) 04:48:12 437.475
ITAMSAT 1 07 Feb 04:44:40 04:46:54 13° 297° (WNW) 04:49:08 435.822/435.867
STARS 07 Feb 04:47:33 04:49:49 14° 267° (W) 04:52:05 437.465
Cosmos 2504 07 Feb 04:47:57 04:55:28 38° 86° (E) 05:03:20 435.465 / 435.565
CUBESAT XI-V 07 Feb 04:54:41 04:59:00 38° 73° (ENE) 05:03:22 437.345
YUBILEINY 07 Feb 05:01:00 05:09:03 40° 284° (WNW) 05:17:13 435.215
AIST 2 07 Feb 05:07:31 05:11:35 57° 59° (ENE) 05:15:37 435.215
AO-7 07 Feb 05:22:55 05:30:40 45° 295° (WNW) 05:38:23 29.400- 29.500
PHONESAT 2.4 07 Feb 05:35:41 05:38:41 31° 7° (N) 05:41:38 2401.200-2431.200
STRAND 1 07 Feb 05:54:56 05:58:52 23° 67° (ENE) 06:02:47 437.568
CUTE-I 07 Feb 05:56:47 06:01:15 26° 96° (E) 06:05:41 437.470
SO-50 07 Feb 06:04:07 06:08:58 68° 301° (WNW) 06:13:55 436.795
Cubesat XI-IV 07 Feb 06:09:09 06:14:01 34° 98° (E) 06:18:53 437.490
BRITE-PL 07 Feb 06:13:48 06:16:52 17° 91° (E) 06:19:49 437.365/2234.400
LilacSat-2 07 Feb 06:16:25 06:19:48 31° 98° (E) 06:23:11 437.200
HORYU 2 07 Feb 06:17:02 06:18:45 12° 295° (WNW) 06:20:29 437.375
CUBESAT XI-V 07 Feb 06:33:24 06:36:29 17° 266° (W) 06:39:37 437.345
Cosmos 2504 07 Feb 06:40:48 06:48:39 42° 284° (WNW) 06:56:55 435.465 / 435.565
PHONESAT 2.4 07 Feb 07:12:55 07:16:11 85° 17° (NNE) 07:19:27 2401.200-2431.200
HO-68 07 Feb 07:14:15 07:17:25 13° 91° (E) 07:20:34 435.675
DOVE 4 07 Feb 07:32:10 07:35:49 28° 96° (E) 07:39:23 437.250
CANX-2 07 Feb 07:32:46 07:34:36 12° 92° (E) 07:36:26 2200.000
STRAND 1 07 Feb 07:33:06 07:37:46 36° 262° (W) 07:42:29 437.568
GOMX 1 07 Feb 07:34:47 07:39:15 68° 101° (E) 07:43:26 467.674
CUTE-I 07 Feb 07:36:29 07:41:16 34° 290° (WNW) 07:46:03 437.470
Cubesat XI-IV 07 Feb 07:49:31 07:53:54 26° 292° (WNW) 07:58:16 437.490
BRITE-PL 07 Feb 07:51:09 07:55:34 36° 289° (WNW) 07:59:39 437.365/2234.400
LilacSat-2 07 Feb 07:51:49 07:53:49 14° 291° (WNW) 07:55:49 437.200
PRISM 07 Feb 07:54:03 07:58:07 59° 259° (WSW) 08:02:15 437.425
CUTE 1.7 + AOD 2 07 Feb 08:22:01 08:26:07 43° 99° (E) 08:30:13 437.475
COMPASS 1 07 Feb 08:25:50 08:29:21 25° 96° (E) 08:32:51 437.405
GONETS M04 07 Feb 08:29:50 08:37:01 30° 85° (E) 08:44:13
SEEDS 07 Feb 08:33:55 08:38:00 44° 99° (E) 08:42:05 437.485
CINEMA 3 07 Feb 08:48:56 08:53:05 75° 101° (E) 08:57:15 145.822/145.860
PHONESAT 2.4 07 Feb 08:51:06 08:53:10 16° 216° (SW) 08:55:14 2401.200-2431.200
ZACube-1 07 Feb 08:51:12 08:52:34 11° 92° (E) 08:53:58 437.345
O/OREOS (USA 219) 07 Feb 08:55:35 09:00:02 69° 291° (WNW) 09:04:31 437.305
AAUSAT CUBESAT 2 07 Feb 08:57:03 09:01:08 49° 99° (E) 09:05:13 437.432
HO-68 07 Feb 08:58:37 09:05:51 88° 289° (WNW) 09:13:04 435.675
FUNcube-1 07 Feb 09:00:59 09:03:22 15° 94° (E) 09:05:46 145.935
CANX-2 07 Feb 09:06:33 09:10:39 45° 286° (WNW) 09:14:44 2200.000
DOVE 4 07 Feb 09:10:21 09:13:20 19° 292° (WNW) 09:16:16 437.250
CUBEBUG 2 07 Feb 09:16:38 09:20:43 51° 100° (E) 09:24:51 437.445
JUGNU 07 Feb 09:21:46 09:24:19 13° 168° (SSE) 09:26:52 437.505
UWE-3 07 Feb 09:23:59 09:28:00 44° 99° (E) 09:32:04 435.000/436.395/437.385
UNISAT 6 07 Feb 09:26:57 09:30:35 26° 71° (ENE) 09:34:10 437.425
HUMSAT D 07 Feb 09:37:04 09:37:43 10° 92° (E) 09:38:24 437.325/437.525
Oscar 11 07 Feb 09:37:11 09:41:28 58° 100° (E) 09:45:45 145.826/435.025
Cosmos 2499 07 Feb 09:57:16 10:05:26 51° 89° (E) 10:13:54 435.465 / 435.565
CUTE 1.7 + AOD 2 07 Feb 09:59:25 10:01:33 14° 293° (WNW) 10:03:42 437.475
COMPASS 1 07 Feb 10:01:31 10:04:46 22° 290° (WNW) 10:08:01 437.405
ANTELSAT 07 Feb 10:11:12 10:15:35 89° 108° (ESE) 10:19:54 437.575/2403.000
SEEDS 07 Feb 10:11:17 10:13:17 13° 293° (WNW) 10:15:19 437.485
POLYITAN 1 07 Feb 10:16:05 10:19:21 22° 70° (ENE) 10:22:37 437.675
QB50P2 07 Feb 10:16:48 10:20:09 23° 70° (ENE) 10:23:30 145.880/145.840
TIGRISAT 07 Feb 10:19:10 10:23:32 77° 258° (WSW) 10:27:51 435.000
GONETS M04 07 Feb 10:25:02 10:33:22 50° 282° (WNW) 10:41:45
ZACube-1 07 Feb 10:25:02 10:29:04 47° 286° (WNW) 10:33:10 437.345
AAUSAT CUBESAT 2 07 Feb 10:34:40 10:36:10 12° 294° (WNW) 10:37:41 437.432
DELFI C3 07 Feb 10:34:59 10:38:54 49° 285° (WNW) 10:42:48 145.870
FUNcube-1 07 Feb 10:35:51 10:39:43 37° 286° (WNW) 10:43:38 145.935
BUGSAT 1 07 Feb 10:36:25 10:39:13 18° 69° (ENE) 10:42:02 437.445
AISAT 07 Feb 10:45:30 10:47:26 13° 93° (E) 10:49:23 437.250
POPSAT HIP 1 07 Feb 10:46:29 10:50:35 49° 74° (ENE) 10:54:41 437.405
PCSat 07 Feb 10:47:37 10:52:15 30° 108° (ESE) 10:56:55 145.827
HO-68 07 Feb 10:48:48 10:52:33 15° 303° (WNW) 10:56:17 435.675
RS-15 07 Feb 10:51:23 11:00:31 31° 104° (ESE) 11:09:58 29.354- 29.394
NANOSAT C BR1 07 Feb 10:53:01 10:57:11 58° 75° (ENE) 11:01:20 145.865
SRMSAT 07 Feb 10:53:18 10:54:33 11° 165° (SSE) 10:55:47 437.500
ESTCUBE 1 07 Feb 10:54:19 10:57:32 19° 94° (E) 11:00:43 437.505/2401.250
CUBEBUG 2 07 Feb 10:55:44 10:56:54 11° 294° (WNW) 10:58:05 437.445
DUCHIFAT 1 07 Feb 10:55:48 10:59:58 59° 75° (ENE) 11:04:07 145.980
QB50P1 07 Feb 10:59:16 11:03:30 73° 76° (ENE) 11:07:44 145.935-145.965
UWE-3 07 Feb 11:02:10 11:04:05 13° 293° (WNW) 11:06:01 435.000/436.395/437.385
AO-85 07 Feb 11:03:19 11:08:32 72° 116° (ESE) 11:14:02 145.980
UNISAT 6 07 Feb 11:03:52 11:07:14 22° 264° (W) 11:10:36 437.425
JUGNU 07 Feb 11:08:47 11:12:34 18° 178° (S) 11:16:21 437.505
HUMSAT D 07 Feb 11:09:34 11:13:36 50° 285° (WNW) 11:17:40 437.325/437.525
CUBEBUG 1 07 Feb 11:12:43 11:16:03 21° 95° (E) 11:19:22 437.445
UKube-1 07 Feb 11:13:35 11:17:05 24° 96° (E) 11:20:33 .
Oscar 11 07 Feb 11:16:01 11:17:04 11° 295° (WNW) 11:18:08 145.826/435.025
AIST 1 07 Feb 11:18:50 11:23:13 86° 280° (W) 11:27:39
DX 1 07 Feb 11:19:54 11:23:52 34° 98° (E) 11:27:48 434.975-435.025
50 SAT 07 Feb 11:22:59 11:26:38 43° 100° (E) 11:30:15 437.505
SPROUT 07 Feb 11:30:36 11:31:07 10° 92° (E) 11:31:37 437.525
Oscar 19 07 Feb 11:40:14 11:41:31 11° 62° (ENE) 11:42:48 437.125/150
Cosmos 2499 07 Feb 11:51:20 11:58:46 32° 287° (WNW) 12:06:30 435.465 / 435.565
POLYITAN 1 07 Feb 11:51:29 11:55:01 25° 263° (W) 11:58:33 437.675
QB50P2 07 Feb 11:52:22 11:55:50 24° 264° (W) 11:59:18 145.880/145.840
VELOX 1 07 Feb 12:03:38 12:08:03 77° 284° (WNW) 12:12:26 145.980
BUGSAT 1 07 Feb 12:10:33 12:14:20 32° 262° (W) 12:18:08 437.445
AISAT 07 Feb 12:19:56 12:24:09 46° 287° (WNW) 12:28:21 437.250
POPSAT HIP 1 07 Feb 12:25:21 12:26:36 11° 268° (W) 12:27:52 437.405
ESTCUBE 1 07 Feb 12:30:17 12:34:23 34° 288° (WNW) 12:38:27 437.505/2401.250
PCSat 07 Feb 12:30:43 12:35:32 32° 304° (WNW) 12:40:23 145.827
JAS-2 07 Feb 12:37:28 12:44:31 40° 69° (ENE) 12:51:08 435.910
SRMSAT 07 Feb 12:39:14 12:42:57 17° 174° (S) 12:46:40 437.500
AO-85 07 Feb 12:46:08 12:49:39 17° 314° (NW) 12:53:14 145.980
CUBEBUG 1 07 Feb 12:48:36 12:52:18 27° 290° (WNW) 12:55:58 437.445
UKube-1 07 Feb 12:49:32 12:53:01 24° 291° (WNW) 12:56:30 .
DX 1 07 Feb 12:56:52 12:59:47 18° 292° (WNW) 13:02:41 434.975-435.025
JUGNU 07 Feb 12:57:30 13:00:51 16° 188° (S) 13:04:11 437.505
50 SAT 07 Feb 12:59:22 13:00:14 11° 293° (WNW) 13:01:07 437.505
RS-15 07 Feb 13:01:01 13:11:58 65° 304° (WNW) 13:23:36 29.354- 29.394
SPROUT 07 Feb 13:03:13 13:07:22 53° 285° (WNW) 13:11:30 437.525
Oscar 19 07 Feb 13:14:55 13:20:06 81° 257° (WSW) 13:25:19 437.125/150
YUBILEINY 07 Feb 13:20:28 13:25:11 15° 65° (ENE) 13:29:52 435.215
Gurwin Techsat 1B 07 Feb 13:23:07 13:28:05 43° 71° (ENE) 13:33:05 435.225
TISAT 1 07 Feb 13:23:14 13:27:25 89° 99° (E) 13:31:35 437.305
CUSAT 1 07 Feb 13:31:07 13:37:09 80° 81° (E) 13:41:36 437.405
SWISSCUBE 07 Feb 13:38:09 13:41:53 22° 96° (E) 13:45:36 437.505
DANDE 07 Feb 13:39:50 13:46:52 54° 76° (ENE) 13:52:12 436.750
ITUPSAT 1 07 Feb 14:12:43 14:17:23 47° 100° (E) 14:22:00 437.325
ITAMSAT 1 07 Feb 14:17:28 14:22:37 77° 75° (ENE) 14:27:49 435.822/435.867
JAS-2 07 Feb 14:22:12 14:29:22 39° 262° (W) 14:36:10 435.910
BEESAT 07 Feb 14:23:01 14:27:46 63° 101° (E) 14:32:31 436.000
AO-7 07 Feb 14:25:50 14:33:20 38° 63° (ENE) 14:40:50 29.400- 29.500
SRMSAT 07 Feb 14:27:38 14:31:23 17° 185° (S) 14:35:10 437.500
SO-50 07 Feb 14:39:04 14:43:39 43° 56° (NE) 14:48:04 436.795
Gurwin Techsat 1B 07 Feb 15:04:21 15:08:10 20° 266° (W) 15:12:00 435.225
KKS-1 07 Feb 15:11:42 15:15:22 25° 97° (E) 15:19:01 437.445
M-CUBED/EXP-1 PRIME 07 Feb 15:12:45 15:16:22 43° 71° (ENE) 15:19:46 437.505
Cosmos 2491 07 Feb 15:14:13 15:22:32 52° 90° (E) 15:30:51 435.465 / 435.565
YUBILEINY 07 Feb 15:14:19 15:23:14 87° 84° (E) 15:32:03 435.215
SWISSCUBE 07 Feb 15:15:25 15:19:41 32° 290° (WNW) 15:23:55 437.505
RS-15 07 Feb 15:19:35 15:27:23 20° 331° (NNW) 15:35:30 29.354- 29.394
DANDE 07 Feb 15:24:16 15:28:52 19° 280° (W) 15:32:47 436.750
AUBIESAT-1 07 Feb 15:25:00 15:28:40 50° 71° (ENE) 15:32:07 437.475
HORYU 2 07 Feb 15:33:21 15:37:18 33° 72° (ENE) 15:41:15 437.375
ITUPSAT 1 07 Feb 15:51:53 15:54:48 16° 294° (WNW) 15:57:43 437.325
BEESAT 07 Feb 16:03:06 16:04:59 12° 296° (WNW) 16:06:53 436.000
AO-7 07 Feb 16:18:03 16:25:53 44° 259° (W) 16:33:47 29.400- 29.500
SRMSAT 07 Feb 16:18:08 16:19:48 11° 194° (SSW) 16:21:29 437.500
SO-50 07 Feb 16:20:39 16:23:44 17° 252° (WSW) 16:26:45 436.795
MOZHAYETS 4 07 Feb 16:21:03 16:25:39 60° 100° (E) 16:30:14
ISS 07 Feb 16:26:13 16:29:25 65° 135° (SE) 16:32:38 145.825
Cosmos 2504 07 Feb 16:37:15 16:45:51 65° 81° (E) 16:53:49 435.465 / 435.565
STARS 07 Feb 16:37:51 16:42:09 58° 285° (WNW) 16:46:25 437.465
KKS-1 07 Feb 16:48:17 16:51:49 24° 291° (WNW) 16:55:21 437.445
CUBESAT XI-V 07 Feb 16:56:28 16:58:27 12° 92° (E) 17:00:25 437.345
LilacSat-2 07 Feb 16:57:52 16:58:46 11° 67° (ENE) 16:59:40 437.200
BEESAT 3 07 Feb 17:08:35 17:11:47 24° 111° (ESE) 17:15:00 437.485
HORYU 2 07 Feb 17:10:52 17:13:55 18° 265° (W) 17:16:57 437.375
Cosmos 2491 07 Feb 17:12:16 17:19:37 30° 287° (WNW) 17:27:00 435.465 / 435.565
YUBILEINY 07 Feb 17:14:03 17:18:44 16° 281° (WNW) 17:23:25 435.215
CUTE-I 07 Feb 17:15:26 17:20:03 31° 69° (ENE) 17:24:42 437.470
BRITE-PL 07 Feb 17:20:17 17:24:14 20° 67° (ENE) 17:28:08 437.365/2234.400
BEESAT 2 07 Feb 17:27:51 17:31:09 25° 112° (ESE) 17:34:27 435.950
Cubesat XI-IV 07 Feb 17:27:54 17:32:51 41° 71° (ENE) 17:37:50 437.490
O/OREOS (USA 219) 07 Feb 17:31:52 17:33:31 12° 57° (ENE) 17:35:09 437.305
